{"data":{"norad_id":37179,"epoch":"2026-05-25T05:11:01.835808Z","epoch_age_seconds":56560,"freshness":"FRESH","line1":"1 37179U 10051A   26145.21599347  .00007028  00000+0  35124-3 0  9996","line2":"2 37179  97.8297 167.6213 0017063 308.1316  51.8378 15.17667405853466","mean_motion":15.17667405,"eccentricity":0.0017063,"inclination_deg":97.8297,"raan_deg":167.6213,"arg_perigee_deg":308.1316,"mean_anomaly_deg":51.8378,"bstar":0.00035124,"rev_number":85346,"period_min":94.882448898611,"perigee_km":501.13424620157,"apogee_km":524.65057316505,"semimajor_km":6891.0294096833,"source":"CELESTRAK","updated_at":"2026-05-25T13:37:55.224711Z"}}